DateTimeUTC,F1_A11,F1_S11,BsB_S11,BsG_S11,BsR_S11,BbsB_S11,BbsG_S11,BbsR_S11,BaB_A11,BaG_A11,BaR_A11,Tu_S11,T_S11,Uu_S11,U_S11,P_S11,T1_A11
2021-05-12T19:00:00Z,00000200,21000000,,,,,,,0000.49,0000.13,0000.47,18.4,24.9,,00.0,0670.4,31.0
2021-05-12T19:01:00Z,00000200,21000000,,,,,,,0000.35,-000.06,0000.12,18.4,24.9,,00.0,0670.4,31.0
2021-05-12T19:02:00Z,00000200,21000000,,,,,,,0000.12,0000.50,-000.14,18.4,24.9,,00.0,0670.4,31.0
2021-05-12T19:03:00Z,00000200,61000000,,,,,,,0000.75,0000.85,0000.65,18.4,24.9,,00.0,0670.4,31.0
2021-05-12T19:04:00Z,00000200,41000000,0003.05,0002.44,0001.36,0000.19,0000.16,0000.14,0002.03,0001.52,0001.67,18.6,24.7,00.0,00.0,0671.3,31.0
2021-05-12T19:05:00Z,00000200,01000000,0002.80,0002.14,0001.46,0000.77,0000.28,0000.32,0001.59,0001.48,0000.87,18.6,24.7,00.1,00.1,0671.4,31.0
2021-05-12T19:06:00Z,00000200,01000000,0003.25,0001.92,0001.32,0001.01,0000.10,0000.43,0000.97,0000.95,0000.43,18.6,24.7,00.1,00.1,0671.4,31.1
2021-05-12T19:07:00Z,00000200,01000000,0002.81,0002.18,0001.45,0000.38,0000.30,0000.39,0000.98,0001.33,0001.05,18.6,24.7,00.1,00.1,0671.4,31.1
2021-05-12T19:08:00Z,00000200,01000000,0002.85,0001.80,0001.37,0000.66,-000.14,0000.39,0002.02,0001.61,0001.34,18.6,24.7,00.1,00.1,0671.4,31.1
2021-05-12T19:09:00Z,00000200,01000000,0003.49,0001.82,0001.54,0000.61,0000.33,0000.44,0001.01,0000.74,0000.62,18.6,24.7,00.1,00.1,0671.4,31.0
2021-05-12T19:10:00Z,00000200,01000000,0002.50,0002.28,0001.50,0000.48,0000.10,0000.40,0001.52,0001.44,0001.34,18.7,24.7,00.1,00.1,0671.4,31.1
2021-05-12T19:11:00Z,00000200,01000000,0002.56,0001.91,0001.43,0000.44,0000.11,0000.11,0001.09,0001.14,0000.61,18.7,24.7,00.0,00.0,0671.4,31.0
2021-05-12T19:12:00Z,00000200,01000000,0003.05,0002.28,0001.66,0000.39,0000.14,0000.30,0001.22,0000.80,0000.52,18.7,24.7,00.1,00.1,0671.4,31.0
2021-05-12T19:13:00Z,00000200,01000000,0002.94,0001.97,0001.43,0000.78,0000.34,0000.52,0001.51,0001.74,0001.12,18.7,24.7,00.1,00.1,0671.4,31.1
2021-05-12T19:14:00Z,00000200,01000000,0003.48,0002.27,0001.56,0000.14,0000.31,0000.25,0001.98,0001.36,0001.28,18.7,24.7,00.1,00.1,0671.4,31.0
2021-05-12T19:15:00Z,00000200,01000000,0003.29,0002.20,0001.41,0000.29,0000.35,0000.50,0000.97,0001.21,0000.99,18.7,24.7,00.1,00.1,0671.5,31.1
2021-05-12T19:16:00Z,00000200,01000000,0003.32,0002.32,0001.63,0000.26,0000.27,0000.57,0001.84,0001.27,0001.30,18.7,24.7,00.2,00.1,0671.4,31.0
2021-05-12T19:17:00Z,00000200,01000000,0003.05,0001.94,0001.31,0000.72,0000.21,0000.51,0000.46,0001.10,0000.25,18.7,24.7,00.1,00.1,0671.5,31.1
2021-05-12T19:18:00Z,00000200,01000000,0003.25,0002.04,0001.37,0000.80,0000.30,0000.54,0001.40,0001.19,0000.91,18.7,24.7,00.1,00.0,0671.5,31.1
2021-05-12T19:19:00Z,00000200,01000000,0002.59,0001.98,0001.44,0000.38,0000.35,0000.32,0001.14,0000.54,0000.75,18.7,24.7,00.1,00.1,0671.5,31.1
2021-05-12T19:20:00Z,00000200,01000000,0002.86,0001.72,0001.26,0000.08,0000.08,0000.10,0000.86,0001.52,0000.70,18.7,24.7,00.1,00.0,0671.5,31.0
2021-05-12T19:21:00Z,00000200,01000000,0002.33,0001.85,0001.44,0000.60,0000.13,0000.41,0001.90,0000.97,0001.00,18.7,24.7,00.0,00.0,0671.5,31.0
2021-05-12T19:22:00Z,00000200,01000000,0002.95,0001.91,0001.35,0000.43,0000.32,0000.35,0000.69,0000.76,0000.90,18.7,24.7,00.0,00.0,0671.5,31.1
2021-05-12T19:23:00Z,00000200,01000000,0003.70,0002.03,0001.59,0000.49,0000.42,0000.20,0001.31,0001.18,0000.69,18.7,24.7,00.1,00.0,0671.5,31.1
2021-05-12T19:24:00Z,00000200,01000000,0002.87,0001.90,0001.27,0000.56,0000.41,0000.28,0001.37,0001.02,0000.96,18.7,24.7,00.1,00.0,0671.5,31.1
2021-05-12T19:25:00Z,00000200,01000000,0002.83,0002.20,0001.35,0000.98,0000.54,0000.26,0000.98,0001.63,0000.91,18.7,24.7,00.1,00.0,0671.5,31.1
2021-05-12T19:26:00Z,00000200,01000000,0002.83,0002.01,0001.13,0000.43,0000.34,0000.13,0001.75,0001.21,0001.06,18.7,24.8,00.0,00.0,0671.6,31.1
2021-05-12T19:27:00Z,00000200,01000000,0002.22,0001.83,0001.20,0000.26,0000.29,0000.27,0001.28,0000.98,0000.89,18.7,24.8,00.1,00.1,0671.6,31.1
2021-05-12T19:28:00Z,00000200,01000000,0002.86,0001.70,0001.35,0000.58,0000.15,0000.51,0001.15,0001.12,0001.11,18.7,24.8,00.1,00.0,0671.6,31.1
2021-05-12T19:29:00Z,00000200,01000000,0002.46,0001.78,0001.36,0000.15,-000.03,-000.05,0001.24,0001.31,0000.46,18.8,24.8,00.1,00.0,0671.6,31.1
2021-05-12T19:30:00Z,00000200,01000000,0003.24,0002.06,0001.55,0000.50,0000.48,0000.18,0001.50,0001.23,0001.01,18.8,24.8,00.1,00.1,0671.6,31.1
2021-05-12T19:31:00Z,00000200,01000000,0002.93,0002.10,0001.38,0000.35,0000.35,0000.09,0002.06,0001.72,0001.49,18.8,24.8,00.1,00.0,0671.6,31.1
2021-05-12T19:32:00Z,00000200,01000000,0002.85,0002.06,0001.24,0000.24,0000.33,0000.12,0000.66,0001.04,0000.59,18.8,24.8,00.1,00.1,0671.6,31.1
2021-05-12T19:33:00Z,00000200,01000000,0002.22,0002.04,0001.49,0000.39,0000.26,0000.26,0000.96,0000.69,0000.72,18.8,24.8,00.1,00.1,0671.6,31.1
2021-05-12T19:34:00Z,00000200,01000000,0002.70,0002.04,0001.50,0000.58,0000.25,0000.20,0001.55,0001.32,0000.79,18.8,24.8,00.1,00.1,0671.6,31.1
2021-05-12T19:35:00Z,00000200,01000000,0002.46,0002.03,0001.48,0000.69,0000.13,0000.21,0001.47,0001.33,0001.19,18.8,24.8,00.1,00.0,0671.6,31.1
2021-05-12T19:36:00Z,00000200,01000000,0002.25,0002.05,0001.55,0000.22,0000.19,0000.15,0000.74,0001.17,0000.66,18.8,24.8,00.1,00.1,0671.6,31.1
2021-05-12T19:37:00Z,00000200,01000000,0003.01,0002.07,0001.38,0000.44,0000.01,0000.22,0000.99,0000.65,0000.74,18.7,24.8,00.1,00.0,0671.6,31.1
2021-05-12T19:38:00Z,00000200,01000000,0003.00,0002.41,0001.35,0000.48,0000.21,0000.24,0001.38,0001.28,0000.91,18.8,24.8,00.0,00.0,0671.6,31.1
2021-05-12T19:39:00Z,00000200,01000000,0002.14,0001.92,0001.11,0000.63,0000.12,0000.15,0001.68,0001.32,0001.13,18.8,24.8,00.0,00.0,0671.6,31.1
2021-05-12T19:40:00Z,00000200,01000000,0003.23,0001.61,0001.27,0000.22,0000.43,0000.21,0001.07,0000.87,0000.85,18.8,24.8,00.1,00.0,0671.7,31.1
2021-05-12T19:41:00Z,00000200,01000000,0002.73,0001.91,0001.22,0000.65,0000.27,0000.31,0001.37,0001.17,0000.73,18.8,24.8,00.0,00.0,0671.7,31.1
2021-05-12T19:42:00Z,00000200,01000000,0002.74,0002.44,0001.37,0000.09,0000.24,0000.24,0001.77,0001.77,0001.53,18.8,24.8,00.1,00.0,0671.7,31.1
2021-05-12T19:43:00Z,00000200,01000000,0002.40,0001.96,0001.32,0000.43,0000.25,0000.50,0001.20,0001.31,0000.65,18.8,24.8,00.1,00.1,0671.7,31.1
2021-05-12T19:44:00Z,00000200,01000000,0002.65,0001.85,0001.36,0000.33,0000.31,0000.34,0000.93,0000.90,0000.96,18.8,24.8,00.0,00.0,0671.7,31.1
2021-05-12T19:45:00Z,00000200,01000000,0002.05,0001.81,0001.07,0000.22,0000.14,0000.09,0000.80,0000.92,0000.38,18.8,24.8,00.0,00.0,0671.7,31.1
2021-05-12T19:46:00Z,00000200,01000000,0002.19,0001.19,0000.62,0000.27,-000.04,-000.07,0001.26,0000.76,0000.57,18.8,24.8,00.1,00.0,0671.7,31.1
2021-05-12T19:47:00Z,00000200,01000000,0001.44,0000.86,0000.86,0000.28,0000.24,0000.03,0000.70,0000.46,0000.76,18.8,24.8,00.1,00.1,0671.7,31.1
2021-05-12T19:48:00Z,00000200,01000000,0001.20,0000.94,0000.55,0000.00,0000.11,0000.30,0000.85,0000.81,0000.12,18.8,24.8,00.1,00.1,0671.7,31.1
2021-05-12T19:49:00Z,00000200,01000000,0001.83,0000.88,0000.70,0000.00,0000.19,0000.13,0000.24,0000.72,0000.68,18.8,24.8,00.1,00.1,0671.8,31.1
2021-05-12T19:50:00Z,00000200,01000000,0001.28,0001.14,0000.40,0000.65,-000.14,0000.11,0001.24,0000.56,0000.53,18.8,24.8,00.1,00.1,0671.8,31.1
2021-05-12T19:51:00Z,00000200,01000000,0001.18,0001.23,0000.71,-000.36,0000.07,0000.31,0000.37,0000.45,0000.55,18.8,24.8,00.1,00.1,0671.8,31.1
2021-05-12T19:52:00Z,00000200,01000000,0001.54,0000.77,0000.79,0000.03,0000.27,0000.15,0001.27,0001.01,0000.38,18.8,24.8,00.1,00.1,0671.8,31.1
2021-05-12T19:53:00Z,00000200,01000000,0001.82,0000.55,0000.50,0000.13,0000.02,0000.18,0000.27,0000.47,0000.60,18.8,24.8,00.1,00.0,0671.8,31.1
2021-05-12T19:54:00Z,00000200,01000000,0001.87,0000.95,0000.67,0000.67,-000.09,0000.45,0000.50,0000.78,0000.62,18.8,24.8,00.0,00.0,0671.8,31.1
2021-05-12T19:55:00Z,00000200,01000000,0000.97,0001.07,0000.46,0000.61,0000.10,0000.03,0000.94,0000.40,0000.37,18.8,24.8,00.1,00.0,0671.8,31.1
2021-05-12T19:56:00Z,00000200,01000000,0001.49,0001.03,0000.56,-000.04,0000.25,0000.07,0000.86,0000.73,0000.47,18.8,24.9,00.1,00.1,0671.8,31.1
2021-05-12T19:57:00Z,00000200,41000000,,,,,,,0000.14,-000.07,-000.08,18.9,24.9,00.3,00.2,0671.7,31.1
2021-05-12T19:58:00Z,00000200,61000000,,,,,,,-000.37,-000.01,0000.10,18.5,25.0,00.0,00.0,0670.8,31.1
2021-05-12T19:59:00Z,00000200,21000000,,,,,,,0000.03,-000.03,-000.30,18.5,25.0,,00.0,0670.8,31.1
